Time,TemperatureF,DewpointF,PressureIn,WindDirection,WindDirectionDegrees,WindSpeedMPH,WindSpeedGustMPH,Humidity,HourlyPrecipIn,Conditions,Clouds,dailyrainin,SolarRadiationWatts/m^2,SoftwareType,DateUTC
2013-04-27 00:01:00,56.0,27.0,-100.00,SSE,160,3.0,10.0,33,0.00,,,0.00,0.000000,,2013-04-27 07:01:00,
2013-04-27 00:31:00,53.0,31.0,-100.00,SSW,194,2.0,5.0,42,0.00,,,0.00,0.000000,,2013-04-27 07:31:00,
2013-04-27 00:52:00,53.0,31.0,-100.00,SSW,194,2.0,5.0,42,0.00,,,0.00,0.000000,,2013-04-27 07:52:00,
2013-04-27 01:01:00,53.0,31.0,-100.00,SSW,194,2.0,5.0,42,0.00,,,0.00,0.000000,,2013-04-27 08:01:00,
2013-04-27 01:11:00,53.0,31.0,-100.00,SSW,194,2.0,5.0,42,0.00,,,0.00,0.000000,,2013-04-27 08:11:00,
2013-04-27 01:21:00,53.0,31.0,-100.00,SSW,194,2.0,5.0,42,0.00,,,0.00,0.000000,,2013-04-27 08:21:00,
2013-04-27 01:31:00,52.0,31.0,-100.00,South,182,3.0,5.0,44,0.00,,,0.00,0.000000,,2013-04-27 08:31:00,
2013-04-27 01:52:00,52.0,31.0,-100.00,South,182,3.0,5.0,44,0.00,,,0.00,0.000000,,2013-04-27 08:52:00,
2013-04-27 02:01:00,52.0,31.0,-100.00,South,182,3.0,5.0,44,0.00,,,0.00,0.000000,,2013-04-27 09:01:00,
2013-04-27 02:11:00,52.0,31.0,-100.00,South,182,3.0,5.0,44,0.00,,,0.00,0.000000,,2013-04-27 09:11:00,
2013-04-27 02:21:00,52.0,31.0,-100.00,South,182,3.0,5.0,44,0.00,,,0.00,0.000000,,2013-04-27 09:21:00,
2013-04-27 02:31:00,49.0,28.0,-100.00,SW,225,3.0,5.0,44,0.00,,,0.00,0.000000,,2013-04-27 09:31:00,
2013-04-27 02:53:00,49.0,28.0,-100.00,SW,225,3.0,5.0,44,0.00,,,0.00,0.000000,,2013-04-27 09:53:00,
2013-04-27 03:02:00,49.0,28.0,-100.00,SW,225,3.0,5.0,44,0.00,,,0.00,0.000000,,2013-04-27 10:02:00,
2013-04-27 03:12:00,49.0,28.0,-100.00,SW,225,3.0,5.0,44,0.00,,,0.00,0.000000,,2013-04-27 10:12:00,
2013-04-27 03:22:00,49.0,28.0,-100.00,SW,225,3.0,5.0,44,0.00,,,0.00,0.000000,,2013-04-27 10:22:00,
2013-04-27 03:31:00,47.0,29.0,-100.00,SSW,210,3.0,6.0,50,0.00,,,0.00,0.000000,,2013-04-27 10:31:00,
2013-04-27 03:52:00,47.0,29.0,-100.00,SSW,210,3.0,6.0,50,0.00,,,0.00,0.000000,,2013-04-27 10:52:00,
2013-04-27 04:02:00,47.0,29.0,-100.00,SSW,210,3.0,6.0,50,0.00,,,0.00,0.000000,,2013-04-27 11:02:00,
2013-04-27 04:11:00,47.0,29.0,-100.00,SSW,210,3.0,6.0,50,0.00,,,0.00,0.000000,,2013-04-27 11:11:00,
2013-04-27 04:21:00,47.0,29.0,-100.00,SSW,210,3.0,6.0,50,0.00,,,0.00,0.000000,,2013-04-27 11:21:00,
2013-04-27 04:31:00,47.0,30.0,-100.00,SSW,193,2.0,6.0,52,0.00,,,0.00,0.000000,,2013-04-27 11:31:00,
2013-04-27 04:52:00,47.0,30.0,-100.00,SSW,193,2.0,6.0,52,0.00,,,0.00,0.000000,,2013-04-27 11:52:00,
2013-04-27 05:01:00,47.0,30.0,-100.00,SSW,193,2.0,6.0,52,0.00,,,0.00,0.000000,,2013-04-27 12:01:00,
2013-04-27 05:11:00,47.0,30.0,-100.00,SSW,193,2.0,6.0,52,0.00,,,0.00,0.000000,,2013-04-27 12:11:00,
2013-04-27 05:21:00,47.0,30.0,-100.00,SSW,193,2.0,6.0,52,0.00,,,0.00,0.000000,,2013-04-27 12:21:00,
2013-04-27 05:52:00,49.0,30.0,-100.00,SW,219,2.0,9.0,47,0.00,,,0.00,0.000000,,2013-04-27 12:52:00,
2013-04-27 06:01:00,49.0,30.0,-100.00,SW,219,2.0,9.0,47,0.00,,,0.00,0.000000,,2013-04-27 13:01:00,
2013-04-27 06:52:00,51.0,29.0,-100.00,SSW,203,4.0,11.0,43,0.00,,,0.00,5.000000,,2013-04-27 13:52:00,
2013-04-27 07:02:00,51.0,29.0,-100.00,SSW,203,4.0,11.0,43,0.00,,,0.00,5.000000,,2013-04-27 14:02:00,
2013-04-27 07:52:00,51.0,30.0,-100.00,SSW,193,7.0,11.0,45,0.00,,,0.00,65.000000,,2013-04-27 14:52:00,
2013-04-27 08:01:00,51.0,30.0,-100.00,SSW,193,7.0,11.0,45,0.00,,,0.00,65.000000,,2013-04-27 15:01:00,
2013-04-27 08:53:00,57.0,34.0,-100.00,South,182,7.0,12.0,41,0.00,,,0.00,277.000000,,2013-04-27 15:53:00,
2013-04-27 09:02:00,57.0,34.0,-100.00,South,182,7.0,12.0,41,0.00,,,0.00,277.000000,,2013-04-27 16:02:00,
2013-04-27 09:31:00,60.0,32.0,-100.00,WSW,254,4.0,10.0,35,0.00,,,0.00,340.000000,,2013-04-27 16:31:00,
2013-04-27 09:53:00,60.0,32.0,-100.00,WSW,254,4.0,10.0,35,0.00,,,0.00,340.000000,,2013-04-27 16:53:00,
2013-04-27 10:02:00,60.0,32.0,-100.00,WSW,254,4.0,10.0,35,0.00,,,0.00,340.000000,,2013-04-27 17:02:00,
2013-04-27 10:11:00,60.0,32.0,-100.00,WSW,254,4.0,10.0,35,0.00,,,0.00,340.000000,,2013-04-27 17:11:00,
2013-04-27 10:22:00,60.0,32.0,-100.00,WSW,254,4.0,10.0,35,0.00,,,0.00,340.000000,,2013-04-27 17:22:00,
2013-04-27 10:31:00,60.0,31.0,-100.00,WSW,255,9.0,17.0,33,0.00,,,0.00,266.000000,,2013-04-27 17:31:00,
2013-04-27 10:53:00,60.0,31.0,-100.00,WSW,255,9.0,17.0,33,0.00,,,0.00,266.000000,,2013-04-27 17:53:00,
2013-04-27 11:02:00,60.0,31.0,-100.00,WSW,255,9.0,17.0,33,0.00,,,0.00,266.000000,,2013-04-27 18:02:00,
2013-04-27 11:11:00,60.0,31.0,-100.00,WSW,255,9.0,17.0,33,0.00,,,0.00,266.000000,,2013-04-27 18:11:00,
2013-04-27 11:21:00,60.0,31.0,-100.00,WSW,255,9.0,17.0,33,0.00,,,0.00,266.000000,,2013-04-27 18:21:00,
2013-04-27 11:31:00,60.0,29.0,-100.00,WSW,254,10.0,21.0,31,0.00,,,0.00,181.000000,,2013-04-27 18:31:00,
2013-04-27 11:52:00,60.0,29.0,-100.00,WSW,254,10.0,21.0,31,0.00,,,0.00,181.000000,,2013-04-27 18:52:00,
2013-04-27 12:02:00,60.0,29.0,-100.00,WSW,254,10.0,21.0,31,0.00,,,0.00,181.000000,,2013-04-27 19:02:00,
2013-04-27 12:11:00,60.0,29.0,-100.00,WSW,254,10.0,21.0,31,0.00,,,0.00,181.000000,,2013-04-27 19:11:00,
2013-04-27 12:21:00,60.0,29.0,-100.00,WSW,254,10.0,21.0,31,0.00,,,0.00,181.000000,,2013-04-27 19:21:00,
2013-04-27 12:31:00,68.0,27.0,-100.00,West,265,10.0,24.0,21,0.00,,,0.00,634.000000,,2013-04-27 19:31:00,
2013-04-27 12:53:00,68.0,27.0,-100.00,West,265,10.0,24.0,21,0.00,,,0.00,634.000000,,2013-04-27 19:53:00,
2013-04-27 13:02:00,68.0,27.0,-100.00,West,265,10.0,24.0,21,0.00,,,0.00,634.000000,,2013-04-27 20:02:00,
2013-04-27 13:11:00,68.0,27.0,-100.00,West,265,10.0,24.0,21,0.00,,,0.00,634.000000,,2013-04-27 20:11:00,
2013-04-27 13:21:00,68.0,27.0,-100.00,West,265,10.0,24.0,21,0.00,,,0.00,634.000000,,2013-04-27 20:21:00,
2013-04-27 13:31:00,68.0,24.0,-100.00,West,260,11.0,25.0,19,0.00,,,0.00,951.000000,,2013-04-27 20:31:00,
2013-04-27 13:52:00,68.0,24.0,-100.00,West,260,11.0,25.0,19,0.00,,,0.00,951.000000,,2013-04-27 20:52:00,
2013-04-27 14:02:00,68.0,24.0,-100.00,West,260,11.0,25.0,19,0.00,,,0.00,951.000000,,2013-04-27 21:02:00,
2013-04-27 14:11:00,68.0,24.0,-100.00,West,260,11.0,25.0,19,0.00,,,0.00,951.000000,,2013-04-27 21:11:00,
2013-04-27 14:21:00,68.0,24.0,-100.00,West,260,11.0,25.0,19,0.00,,,0.00,951.000000,,2013-04-27 21:21:00,
2013-04-27 14:31:00,69.0,29.0,-100.00,WSW,243,10.0,24.0,22,0.00,,,0.00,918.000000,,2013-04-27 21:31:00,
2013-04-27 14:53:00,69.0,29.0,-100.00,WSW,243,10.0,24.0,22,0.00,,,0.00,918.000000,,2013-04-27 21:53:00,
2013-04-27 15:02:00,69.0,29.0,-100.00,WSW,243,10.0,24.0,22,0.00,,,0.00,918.000000,,2013-04-27 22:02:00,
2013-04-27 15:12:00,69.0,29.0,-100.00,WSW,243,10.0,24.0,22,0.00,,,0.00,918.000000,,2013-04-27 22:12:00,
2013-04-27 15:22:00,69.0,29.0,-100.00,WSW,243,10.0,24.0,22,0.00,,,0.00,918.000000,,2013-04-27 22:22:00,
2013-04-27 15:31:00,70.0,28.0,-100.00,West,267,7.0,21.0,21,0.00,,,0.00,797.000000,,2013-04-27 22:31:00,
2013-04-27 15:52:00,70.0,28.0,-100.00,West,267,7.0,21.0,21,0.00,,,0.00,797.000000,,2013-04-27 22:52:00,
2013-04-27 16:02:00,70.0,28.0,-100.00,West,267,7.0,21.0,21,0.00,,,0.00,797.000000,,2013-04-27 23:02:00,
2013-04-27 16:11:00,70.0,28.0,-100.00,West,267,7.0,21.0,21,0.00,,,0.00,797.000000,,2013-04-27 23:11:00,
2013-04-27 16:22:00,70.0,28.0,-100.00,West,267,7.0,21.0,21,0.00,,,0.00,797.000000,,2013-04-27 23:22:00,
2013-04-27 16:31:00,67.0,28.0,-100.00,SW,222,11.0,22.0,23,0.00,,,0.00,678.000000,,2013-04-27 23:31:00,
2013-04-27 16:52:00,67.0,28.0,-100.00,SW,222,11.0,22.0,23,0.00,,,0.00,678.000000,,2013-04-27 23:52:00,
2013-04-27 17:01:00,67.0,28.0,-100.00,SW,222,11.0,22.0,23,0.00,,,0.00,678.000000,,2013-04-28 00:01:00,
2013-04-27 17:11:00,67.0,28.0,-100.00,SW,222,11.0,22.0,23,0.00,,,0.00,678.000000,,2013-04-28 00:11:00,
2013-04-27 17:21:00,67.0,28.0,-100.00,SW,222,11.0,22.0,23,0.00,,,0.00,678.000000,,2013-04-28 00:21:00,
2013-04-27 17:52:00,66.0,23.0,-100.00,SSW,212,9.0,28.0,19,0.00,,,0.00,623.000000,,2013-04-28 00:52:00,
2013-04-27 18:01:00,66.0,23.0,-100.00,SSW,212,9.0,28.0,19,0.00,,,0.00,623.000000,,2013-04-28 01:01:00,
2013-04-27 18:31:00,64.0,23.0,-100.00,West,269,6.0,21.0,21,0.00,,,0.00,347.000000,,2013-04-28 01:31:00,
2013-04-27 18:52:00,64.0,23.0,-100.00,West,269,6.0,21.0,21,0.00,,,0.00,347.000000,,2013-04-28 01:52:00,
2013-04-27 19:01:00,64.0,23.0,-100.00,West,269,6.0,21.0,21,0.00,,,0.00,347.000000,,2013-04-28 02:01:00,
2013-04-27 19:31:00,57.0,27.0,-100.00,SW,225,6.0,15.0,32,0.00,,,0.00,103.000000,,2013-04-28 02:31:00,
2013-04-27 19:52:00,57.0,27.0,-100.00,SW,225,6.0,15.0,32,0.00,,,0.00,103.000000,,2013-04-28 02:52:00,
2013-04-27 20:01:00,57.0,27.0,-100.00,SW,225,6.0,15.0,32,0.00,,,0.00,103.000000,,2013-04-28 03:01:00,
2013-04-27 20:11:00,57.0,27.0,-100.00,SW,225,6.0,15.0,32,0.00,,,0.00,103.000000,,2013-04-28 03:11:00,
2013-04-27 20:21:00,57.0,27.0,-100.00,SW,225,6.0,15.0,32,0.00,,,0.00,103.000000,,2013-04-28 03:21:00,
2013-04-27 20:31:00,54.0,30.0,-100.00,SW,217,6.0,14.0,40,0.00,,,0.00,6.000000,,2013-04-28 03:31:00,
2013-04-27 20:53:00,54.0,30.0,-100.00,SW,217,6.0,14.0,40,0.00,,,0.00,6.000000,,2013-04-28 03:53:00,
2013-04-27 21:02:00,54.0,30.0,-100.00,SW,217,6.0,14.0,40,0.00,,,0.00,6.000000,,2013-04-28 04:02:00,
2013-04-27 21:13:00,54.0,30.0,-100.00,SW,217,6.0,14.0,40,0.00,,,0.00,6.000000,,2013-04-28 04:13:00,
2013-04-27 21:22:00,54.0,30.0,-100.00,SW,217,6.0,14.0,40,0.00,,,0.00,6.000000,,2013-04-28 04:22:00,
2013-04-27 21:31:00,52.0,30.0,-100.00,WSW,248,7.0,14.0,42,0.00,,,0.00,0.000000,,2013-04-28 04:31:00,
2013-04-27 21:53:00,52.0,30.0,-100.00,WSW,248,7.0,14.0,42,0.00,,,0.00,0.000000,,2013-04-28 04:53:00,
2013-04-27 22:02:00,52.0,30.0,-100.00,WSW,248,7.0,14.0,42,0.00,,,0.00,0.000000,,2013-04-28 05:02:00,
2013-04-27 22:12:00,52.0,30.0,-100.00,WSW,248,7.0,14.0,42,0.00,,,0.00,0.000000,,2013-04-28 05:12:00,
2013-04-27 22:22:00,52.0,30.0,-100.00,WSW,248,7.0,14.0,42,0.00,,,0.00,0.000000,,2013-04-28 05:22:00,
2013-04-27 22:31:00,51.0,29.0,-100.00,WSW,243,9.0,19.0,43,0.00,,,0.00,0.000000,,2013-04-28 05:31:00,
2013-04-27 22:52:00,51.0,29.0,-100.00,WSW,243,9.0,19.0,43,0.00,,,0.00,0.000000,,2013-04-28 05:52:00,
2013-04-27 23:01:00,51.0,29.0,-100.00,WSW,243,9.0,19.0,43,0.00,,,0.00,0.000000,,2013-04-28 06:01:00,
2013-04-27 23:12:00,51.0,29.0,-100.00,WSW,243,9.0,19.0,43,0.00,,,0.00,0.000000,,2013-04-28 06:12:00,
2013-04-27 23:21:00,51.0,29.0,-100.00,WSW,243,9.0,19.0,43,0.00,,,0.00,0.000000,,2013-04-28 06:21:00,
2013-04-27 23:31:00,50.0,28.0,-100.00,SW,234,9.0,21.0,43,0.00,,,0.00,0.000000,,2013-04-28 06:31:00,
2013-04-27 23:52:00,50.0,28.0,-100.00,SW,234,9.0,21.0,43,0.00,,,0.00,0.000000,,2013-04-28 06:52:00,